Location: Appleton
(44.2618°N, 88.4157°W)
Time: 10:18:33
(UTC+00:00)

Transit 2A Rocket - All Passes

Search period start: 01 March 2021 00:00
Search period end: 11 March 2021 00:00
Orbit: 594 x 909 km, 66.7° (Epoch: 28 February)

Date Brightness Start Highest point End Pass type
(mag) Time Alt. Az. Time Alt. Az. Time Alt. Az.
01 Mar - 09:08:54 10° SSW 09:13:56 71° ESE 09:18:35 10° NE visible
01 Mar - 10:53:27 10° W 10:56:53 19° NW 11:00:12 10° N visible
01 Mar - 16:10:00 10° NNE 16:11:49 12° NE 16:13:37 10° ENE daylight
01 Mar - 17:50:48 10° NNW 17:55:07 75° ENE 17:59:31 10° SE daylight
01 Mar - 19:35:40 10° W 19:37:01 11° WSW 19:38:23 10° SW daylight
02 Mar - 08:26:42 10° S 08:31:25 40° ESE 08:35:47 10° NE visible
02 Mar - 10:09:44 10° WSW 10:14:01 29° NW 10:18:04 10° NNE visible
02 Mar - 17:08:20 10° NNW 17:12:27 41° NE 17:16:37 10° SE daylight
02 Mar - 18:51:26 10° WNW 18:54:42 21° WSW 18:58:02 10° SSW daylight
03 Mar - 07:45:04 10° SSE 07:48:59 23° ESE 07:52:41 10° ENE visible
03 Mar - 09:26:28 10° SW 09:31:17 47° NW 09:35:45 10° NNE visible
03 Mar - 16:26:04 10° N 16:29:40 25° NE 16:33:18 10° ESE daylight
03 Mar - 18:08:16 10° NW 18:12:17 39° WSW 18:16:24 10° S daylight
04 Mar - 07:04:26 10° SE 07:06:37 13° ESE 07:08:45 10° E night (unlit)
04 Mar - 08:43:36 10° SSW 08:48:37 82° WNW 08:53:16 10° NNE visible
04 Mar - 10:29:12 10° WNW 10:31:49 14° NW 10:34:22 10° N visible
04 Mar - 15:44:02 10° N 15:46:45 16° NE 15:49:30 10° E daylight
04 Mar - 17:25:29 10° NW 17:29:47 74° WSW 17:34:12 10° SSE daylight
05 Mar - 08:01:07 10° SSW 08:06:04 57° ESE 08:10:37 10° NE visible
05 Mar - 09:45:08 10° W 09:48:53 22° NW 09:52:27 10° N visible
05 Mar - 15:02:48 10° NNE 15:03:44 11° NE 15:04:41 10° NE daylight
05 Mar - 16:42:54 10° NNW 16:47:11 61° NE 16:51:33 10° SE daylight
05 Mar - 18:26:52 10° WNW 18:29:13 14° WSW 18:31:36 10° SW daylight
06 Mar - 07:19:07 10° S 07:23:34 32° ESE 07:27:43 10° NE visible
06 Mar - 09:01:36 10° WSW 09:06:03 34° NW 09:10:14 10° NNE visible
06 Mar - 16:00:31 10° NNW 16:04:29 34° NE 16:08:30 10° ESE daylight
06 Mar - 17:43:14 10° NW 17:46:51 26° WSW 17:50:33 10° SSW daylight
07 Mar - 06:37:44 10° SSE 06:41:09 19° ESE 06:44:24 10° ENE night (unlit)
07 Mar - 08:18:28 10° SW 08:23:20 57° NW 08:27:51 10° NNE visible
07 Mar - 10:05:29 10° NW 10:06:48 11° NW 10:08:06 10° NNW visible
07 Mar - 15:18:18 10° N 15:21:39 21° NE 15:25:02 10° E daylight
07 Mar - 17:00:14 10° NW 17:04:24 48° WSW 17:08:42 10° S daylight
08 Mar - 07:35:44 10° SSW 07:40:43 83° ESE 07:45:19 10° NNE visible
08 Mar - 09:20:44 10° W 09:23:46 17° NW 09:26:42 10° N visible
08 Mar - 14:36:25 10° N 14:38:42 14° NE 14:41:00 10° ENE daylight
08 Mar - 16:17:32 10° NNW 16:21:52 89° ENE 16:26:19 10° SSE daylight
09 Mar - 06:53:24 10° S 06:58:10 46° ESE 07:02:36 10° NE visible
09 Mar - 08:36:53 10° WSW 08:40:52 25° NW 08:44:40 10° N visible
09 Mar - 15:35:02 10° NNW 15:39:14 49° NE 15:43:32 10° SE daylight
09 Mar - 17:18:27 10° WNW 17:21:24 18° WSW 17:24:24 10° SSW daylight
10 Mar - 06:11:35 10° SSE 06:15:43 26° ESE 06:19:35 10° NE night (unlit)
10 Mar - 07:53:29 10° WSW 07:58:05 40° NW 08:02:24 10° NNE visible
10 Mar - 14:52:42 10° NNW 14:56:29 29° NE 15:00:20 10° ESE daylight
10 Mar - 16:35:07 10° NW 16:38:59 33° WSW 16:42:59 10° S daylight
